Temp
71 71 70 70 70 70 70 69 69 69 69 69 68 68 67 67 68 67 67 67 67 66 67 66 66 66 68 67 66 67 66 64 64 64 64 63 62 62 62 62 61 61
71 71 71 71 71 71 70 71 70 70 70 70 70 68 69 68 67 68 67 67 67 66 67 66 67 67 67 66 67 65 64 64 63 67 63 63 62 62 62 61 61 62
71 71 70 70 70 70 70 71 72 70 70 72 70 70 69 68 67 67 67 66 66 66 66 66 66 67 67 65 66 65 64 64 63 65 63 63 63 62 63 62 62 62
72 72 72 71 71 71 71 70 71 70 70 70 71 70 70 69 67 67 67 68 66 66 65 66 65 66 67 66 66 65 64 64 64 63 62 63 63 63 61 61 61 61
71 71 72 72 72 72 71 71 70 71 70 70 71 70 70 68 67 67 66 66 66 66 66 65 65 65 66 65 66 64 64 64 63 64 63 62 62 62 63 62 61 61
72 74 73 73 71 71 71 71 71 72 71 70 70 71 70 70 68 68 67 66 67 67 66 66 66 65 65 65 64 64 64 64 63 64 63 62 62 62 65 62 61 61
72 72 72 72 72 71 70 70 69 70 70 71 70 69 70 69 69 69 70 68 68 68 68 66 65 65 65 64 64 63 63 63 64 64 63 62 61 62 63 63 62 63
71 72 71 70 69 69 67 66 66 68 69 70 70 69 70 70 70 68 68 69 68 69 68 68 67 66 65 64 64 63 63 65 64 64 63 63 61 61 61 63 61 61
69 68 69 68 67 67 67 65 64 64 68 69 68 69 71 69 69 69 69 69 69 68 69 68 68 67 65 65 64 64 64 63 63 62 62 61 60 61 63 62 60 60
68 67 68 67 67 66 65 62 62 62 65 67 69 70 69 69 70 70 69 69 69 69 70 69 68 67 66 66 66 65 64 64 63 62 62 62 62 62 63 62 60 59
67 68 67 67 66 65 65 65 64 63 64 67 68 68 68 68 67 68 68 69 68 69 70 70 69 68 67 66 65 64 65 64 63 63 62 62 62 62 63 61 60 59
66 66 67 66 65 65 65 64 63 64 64 65 67 67 66 66 64 65 67 69 70 70 70 70 70 70 69 68 68 66 64 63 63 62 62 63 62 62 62 60 60 59
67 67 67 67 67 67 66 66 65 63 63 64 65 63 62 63 64 65 66 67 69 70 70 69 69 69 69 68 68 68 65 64 63 62 62 62 62 62 62 61 60 61
67 67 67 68 67 67 67 67 66 65 65 65 65 64 64 65 66 66 67 69 69 70 68 66 65 65 67 68 69 67 65 64 63 62 62 61 60 61 61 60 60 60
67 68 68 67 68 68 67 66 66 66 66 66 65 65 65 65 64 63 60 60 61 60 64 65 62 61 61 61 63 66 65 64 63 63 61 60 60 60 60 59 59 59
69 68 68 69 69 68 69 69 68 67 67 66 65 65 64 63 63 62 62 61 61 62 62 61 61 62 57 53 52 64 65 66 63 62 61 60 59 58 58 58 59 58
68 68 68 68 69 69 68 68 68 68 68 67 65 64 63 63 63 64 64 63 61 59 61 61 61 61 52 49 48 54 64 62 61 60 61 60 59 57 57 57 57 59
68 69 68 68 69 68 68 69 68 68 67 67 67 67 67 67 66 66 66 65 64 64 62 60 61 55 50 48 47 50 55 62 61 61 61 60 59 60 59 57 57 57
68 68 68 68 68 68 67 67 66 66 66 66 65 66 66 66 65 65 65 65 65 65 64 62 62 49 47 47 46 47 51 57 62 61 60 59 60 60 60 59 58 57
67 67 67 67 66 66 66 65 65 64 64 65 65 65 64 64 64 64 64 64 64 64 63 63 61 48 46 47 46 47 47 53 61 60 60 60 60 60 59 59 57 57
68 67 66 66 66 65 64 63 63 62 64 64 64 63 62 63 63 63 63 64 63 64 63 62 57 45 44 45 46 46 46 52 60 59 59 58 59 58 58 58 58 57
67 66 65 65 65 64 64 63 63 63 62 63 63 63 63 63 63 63 63 62 64 62 62 57 53 42 43 44 45 45 48 56 57 56 56 56 56 57 57 58 57 57
67 66 65 64 64 63 63 62 62 62 63 63 62 62 62 62 62 62 63 62 62 62 59 53 51 43 42 44 44 46 49 55 55 55 55 54 55 57 57 57 57 57
66 66 65 64 63 63 62 62 63 62 62 63 61 61 61 62 62 63 62 63 62 63 56 52 49 44 41 43 45 47 50 55 54 54 53 54 54 55 55 56 58 56
66 65 64 64 63 62 62 61 61 61 62 62 62 62 61 62 63 61 62 60 56 54 51 51 47 44 41 42 42 43 50 55 55 54 53 52 54 54 55 55 56 54
64 63 63 63 63 62 61 61 61 61 60 61 60 63 63 62 62 62 57 53 54 53 51 50 47 46 44 41 41 40 41 51 54 53 53 52 53 53 53 54 54 53
MSLP
1013.04 1013.28 1013.60 1013.84 1014.12 1014.32 1014.60 1014.80 1014.96 1015.20 1015.36 1015.44 1015.76 1015.96 1016.16 1016.32 1016.44 1016.60 1016.72 1016.84 1017.00 1017.12 1017.16 1017.24 1017.28 1017.32 1017.32 1017.32 1017.28 1017.40 1017.64 1017.76 1017.88 1017.96 1018.08 1018.24 1018.40 1018.48 1018.60 1018.56 1018.60 1018.64
1013.04 1013.24 1013.52 1013.76 1013.96 1014.20 1014.44 1014.56 1014.84 1015.08 1015.28 1015.32 1015.48 1015.76 1016.00 1016.24 1016.48 1016.52 1016.72 1016.88 1017.04 1017.16 1017.24 1017.32 1017.36 1017.40 1017.40 1017.48 1017.48 1017.64 1017.84 1017.88 1018.04 1018.04 1018.20 1018.28 1018.44 1018.56 1018.64 1018.64 1018.68 1018.60
1012.96 1013.24 1013.52 1013.84 1014.04 1014.16 1014.40 1014.56 1014.72 1014.96 1015.20 1015.24 1015.36 1015.60 1015.96 1016.20 1016.48 1016.60 1016.68 1016.88 1017.04 1017.16 1017.32 1017.36 1017.44 1017.44 1017.44 1017.56 1017.60 1017.68 1017.88 1017.96 1018.08 1018.04 1018.16 1018.36 1018.40 1018.60 1018.64 1018.72 1018.76 1018.68
1012.96 1013.12 1013.40 1013.68 1013.88 1014.08 1014.28 1014.64 1014.80 1014.96 1015.12 1015.36 1015.48 1015.56 1015.84 1016.20 1016.48 1016.64 1016.76 1016.84 1017.00 1017.12 1017.24 1017.32 1017.44 1017.48 1017.48 1017.60 1017.64 1017.76 1017.88 1017.96 1018.04 1018.12 1018.32 1018.36 1018.40 1018.52 1018.68 1018.76 1018.84 1018.84
1013.00 1013.20 1013.28 1013.52 1013.72 1013.88 1014.20 1014.60 1014.96 1015.08 1015.24 1015.36 1015.40 1015.48 1015.76 1016.12 1016.48 1016.60 1016.72 1016.84 1016.92 1017.08 1017.20 1017.28 1017.32 1017.40 1017.44 1017.56 1017.64 1017.80 1017.92 1018.00 1018.12 1018.16 1018.24 1018.44 1018.48 1018.56 1018.68 1018.76 1018.92 1019.00
1012.96 1013.16 1013.32 1013.56 1013.76 1014.00 1014.28 1014.64 1014.88 1015.16 1015.32 1015.44 1015.52 1015.52 1015.68 1015.92 1016.28 1016.44 1016.60 1016.76 1016.84 1016.92 1017.08 1017.16 1017.28 1017.36 1017.40 1017.52 1017.60 1017.68 1017.84 1017.96 1018.08 1018.08 1018.20 1018.36 1018.52 1018.52 1018.56 1018.72 1018.88 1019.00
1013.08 1013.24 1013.48 1013.60 1013.84 1014.12 1014.44 1014.84 1015.08 1015.32 1015.44 1015.48 1015.48 1015.64 1015.72 1015.96 1016.20 1016.32 1016.40 1016.52 1016.64 1016.76 1016.92 1017.08 1017.20 1017.28 1017.32 1017.40 1017.56 1017.60 1017.72 1017.76 1017.92 1018.04 1018.12 1018.28 1018.36 1018.48 1018.52 1018.64 1018.68 1018.76
1013.08 1013.36 1013.60 1013.92 1014.16 1014.40 1014.60 1015.08 1015.48 1015.56 1015.60 1015.64 1015.80 1015.64 1015.60 1015.76 1015.96 1016.20 1016.32 1016.44 1016.56 1016.60 1016.68 1016.80 1016.96 1017.12 1017.20 1017.28 1017.44 1017.52 1017.64 1017.60 1017.80 1017.92 1017.96 1018.08 1018.24 1018.44 1018.52 1018.60 1018.76 1018.84
1013.16 1013.44 1013.56 1014.04 1014.56 1014.80 1014.96 1015.40 1015.68 1015.76 1015.84 1015.84 1015.88 1015.80 1015.64 1015.60 1015.72 1015.92 1016.12 1016.28 1016.48 1016.56 1016.60 1016.64 1016.72 1016.88 1017.04 1017.20 1017.32 1017.40 1017.52 1017.56 1017.68 1017.80 1017.88 1018.00 1018.24 1018.36 1018.44 1018.52 1018.76 1018.84
1013.56 1013.72 1013.76 1013.92 1014.24 1014.48 1014.80 1015.20 1015.48 1015.52 1015.80 1016.00 1015.88 1015.76 1015.80 1015.68 1015.64 1015.68 1015.76 1015.96 1016.20 1016.32 1016.40 1016.48 1016.60 1016.72 1016.88 1017.00 1017.12 1017.24 1017.36 1017.52 1017.64 1017.72 1017.76 1017.84 1018.04 1018.16 1018.16 1018.36 1018.64 1018.80
1013.56 1013.80 1013.96 1014.00 1014.04 1014.20 1014.48 1014.80 1015.16 1015.40 1015.84 1015.84 1015.80 1015.80 1015.80 1015.88 1015.80 1015.56 1015.52 1015.56 1015.72 1015.92 1016.08 1016.16 1016.28 1016.40 1016.64 1016.92 1017.08 1017.16 1017.28 1017.48 1017.64 1017.64 1017.64 1017.68 1017.84 1017.92 1017.96 1018.12 1018.36 1018.56
1013.80 1013.88 1014.08 1014.32 1014.40 1014.36 1014.40 1014.52 1014.72 1014.84 1015.04 1015.40 1015.40 1015.56 1015.92 1016.20 1015.84 1015.52 1015.44 1015.40 1015.44 1015.56 1015.72 1015.88 1015.96 1016.08 1016.20 1016.48 1016.80 1017.04 1017.24 1017.40 1017.60 1017.68 1017.68 1017.72 1017.80 1017.84 1017.92 1018.08 1018.24 1018.44
1013.76 1013.96 1014.08 1014.16 1014.16 1014.16 1014.24 1014.48 1014.80 1015.08 1015.16 1015.20 1015.16 1015.28 1015.56 1015.80 1015.76 1015.64 1015.52 1015.56 1015.52 1015.48 1015.52 1015.68 1015.88 1015.96 1016.00 1016.12 1016.36 1016.68 1017.00 1017.24 1017.48 1017.60 1017.68 1017.72 1017.68 1017.72 1017.84 1018.04 1018.20 1018.32
1013.76 1013.88 1013.96 1013.96 1014.00 1014.04 1014.08 1014.24 1014.48 1014.72 1014.88 1014.96 1015.12 1015.32 1015.40 1015.52 1015.44 1015.32 1015.28 1015.40 1015.48 1015.48 1015.64 1015.92 1016.32 1016.44 1016.52 1016.40 1016.24 1016.44 1016.68 1017.00 1017.20 1017.40 1017.52 1017.68 1017.72 1017.76 1017.88 1018.00 1018.20 1018.36
1013.68 1013.68 1013.72 1013.68 1013.76 1013.84 1014.00 1014.20 1014.40 1014.48 1014.64 1014.84 1014.96 1015.08 1015.12 1015.12 1015.16 1015.28 1015.36 1015.28 1015.64 1016.36 1016.48 1015.92 1015.88 1015.96 1016.32 1017.12 1017.28 1016.52 1016.48 1016.72 1016.96 1017.24 1017.44 1017.64 1017.76 1017.88 1017.96 1018.04 1018.24 1018.36
1013.44 1013.56 1013.52 1013.56 1013.64 1013.68 1013.72 1013.76 1013.92 1014.12 1014.36 1014.52 1014.68 1014.72 1014.76 1014.88 1015.00 1015.12 1015.32 1015.48 1015.60 1015.76 1016.04 1016.08 1015.88 1015.88 1016.04 1016.20 1016.76 1016.76 1016.40 1016.52 1016.80 1017.12 1017.36 1017.56 1017.76 1017.96 1018.04 1018.12 1018.28 1018.40
1013.40 1013.44 1013.52 1013.60 1013.56 1013.64 1013.72 1013.80 1013.80 1013.76 1013.92 1014.16 1014.32 1014.44 1014.48 1014.56 1014.72 1014.80 1014.88 1015.04 1015.36 1015.64 1015.76 1015.80 1015.68 1015.64 1015.72 1015.88 1016.24 1016.28 1016.04 1016.20 1016.52 1016.96 1017.28 1017.52 1017.72 1018.00 1018.12 1018.24 1018.28 1018.32
1013.40 1013.44 1013.52 1013.52 1013.60 1013.68 1013.68 1013.68 1013.72 1013.80 1013.88 1013.84 1013.80 1013.84 1013.84 1013.88 1014.08 1014.16 1014.24 1014.44 1014.80 1015.00 1015.20 1015.28 1015.32 1015.28 1015.48 1015.72 1015.96 1015.84 1015.76 1016.04 1016.36 1016.76 1017.12 1017.36 1017.64 1017.84 1018.00 1018.16 1018.24 1018.28
1013.44 1013.52 1013.56 1013.56 1013.64 1013.68 1013.76 1013.80 1013.84 1013.88 1013.84 1013.80 1013.84 1013.72 1013.64 1013.72 1013.80 1013.84 1013.96 1014.00 1014.16 1014.36 1014.52 1014.72 1014.88 1015.08 1015.20 1015.40 1015.68 1015.80 1015.84 1016.04 1016.36 1016.52 1016.88 1017.20 1017.44 1017.64 1017.76 1017.92 1018.04 1018.16
1013.52 1013.60 1013.68 1013.68 1013.68 1013.72 1013.76 1013.80 1013.84 1013.84 1013.76 1013.68 1013.68 1013.68 1013.80 1013.80 1013.76 1013.84 1013.84 1013.92 1013.96 1014.04 1014.12 1014.28 1014.56 1014.88 1014.96 1015.20 1015.48 1015.60 1015.76 1016.04 1016.44 1016.52 1016.80 1017.12 1017.36 1017.56 1017.68 1017.76 1017.92 1018.08
1013.44 1013.48 1013.60 1013.72 1013.76 1013.84 1013.88 1013.88 1013.88 1013.80 1013.72 1013.68 1013.68 1013.72 1013.80 1013.80 1013.80 1013.80 1013.80 1013.76 1013.76 1013.76 1013.92 1014.08 1014.52 1014.84 1015.00 1015.16 1015.32 1015.52 1015.76 1016.04 1016.28 1016.56 1016.84 1017.12 1017.28 1017.44 1017.64 1017.84 1018.00 1018.20
1013.28 1013.40 1013.56 1013.68 1013.76 1013.80 1013.84 1013.84 1013.80 1013.80 1013.80 1013.68 1013.68 1013.68 1013.68 1013.64 1013.56 1013.52 1013.52 1013.56 1013.52 1013.60 1013.76 1014.28 1014.72 1015.04 1015.16 1015.40 1015.48 1015.56 1015.76 1016.04 1016.32 1016.64 1016.96 1017.28 1017.44 1017.56 1017.80 1017.92 1018.08 1018.24
1013.20 1013.36 1013.48 1013.60 1013.68 1013.76 1013.80 1013.80 1013.76 1013.72 1013.68 1013.60 1013.68 1013.64 1013.64 1013.56 1013.52 1013.44 1013.28 1013.28 1013.32 1013.40 1013.76 1014.68 1015.24 1015.76 1015.60 1015.52 1015.64 1015.64 1015.92 1016.20 1016.36 1016.88 1017.28 1017.52 1017.64 1017.76 1017.88 1018.00 1018.08 1018.16
1013.08 1013.20 1013.36 1013.44 1013.52 1013.64 1013.64 1013.64 1013.60 1013.60 1013.60 1013.56 1013.60 1013.56 1013.48 1013.36 1013.32 1013.24 1013.16 1013.08 1013.12 1013.24 1013.84 1014.64 1015.60 1016.08 1016.20 1016.04 1016.00 1016.08 1016.20 1016.52 1016.72 1016.96 1017.40 1017.56 1017.72 1017.80 1017.88 1018.00 1018.00 1018.00
1013.00 1013.12 1013.24 1013.36 1013.48 1013.56 1013.56 1013.64 1013.60 1013.60 1013.52 1013.44 1013.44 1013.36 1013.28 1013.20 1013.12 1013.20 1013.08 1013.36 1013.64 1013.80 1014.28 1014.88 1015.84 1016.32 1016.36 1016.24 1016.36 1016.44 1016.52 1016.64 1016.84 1017.08 1017.36 1017.48 1017.60 1017.72 1017.80 1017.84 1017.88 1017.88
1013.00 1013.04 1013.16 1013.28 1013.36 1013.40 1013.40 1013.44 1013.44 1013.48 1013.48 1013.40 1013.32 1013.24 1013.16 1013.00 1012.96 1012.92 1013.68 1014.36 1014.36 1014.64 1014.96 1015.40 1015.96 1016.48 1016.64 1016.56 1016.68 1016.84 1017.00 1017.04 1017.04 1017.20 1017.32 1017.48 1017.60 1017.72 1017.96 1017.84 1017.88 1018.16
Wind_Speed
5 5 5 4 5 5 5 4 5 4 3 4 5 5 5 5 4 3 3 3 3 3 2 2 3 1 2 1 3 5 3 4 3 3 4 4 3 4 4 3 4 4
7 6 5 4 3 5 4 3 4 4 3 3 5 5 5 5 4 3 4 3 3 3 3 2 1 1 1 2 1 4 3 3 3 2 3 3 4 3 2 3 3 3
7 6 7 5 4 4 6 3 2 5 3 2 3 5 5 5 4 3 4 3 3 4 3 2 2 1 1 3 1 2 3 3 3 2 3 5 3 3 2 2 1 1
6 5 6 6 5 3 6 5 2 4 3 2 2 4 5 5 3 3 3 4 3 4 3 3 3 3 2 3 1 2 3 2 3 3 3 2 2 3 3 3 2 3
5 4 3 4 4 3 5 5 4 2 3 3 2 3 6 6 4 3 3 3 3 4 4 3 3 3 3 3 2 3 2 2 3 2 3 3 3 2 2 2 1 1
4 4 3 3 3 1 2 3 3 1 2 3 2 3 4 6 5 4 4 4 4 4 5 4 4 3 3 4 3 4 3 3 3 2 3 3 4 3 3 3 2 1
4 3 3 4 4 2 4 1 2 2 3 0 3 3 1 4 4 4 6 5 5 5 5 5 5 4 4 4 4 4 4 3 5 4 3 3 3 1 2 1 1 1
5 2 3 4 3 3 5 7 5 3 3 2 2 3 5 4 6 3 3 5 6 6 6 6 6 5 5 4 5 4 5 3 6 4 4 5 4 4 3 2 2 1
3 4 4 5 3 2 5 7 2 5 7 3 2 3 1 3 5 7 5 4 5 5 6 6 7 7 6 5 5 5 6 4 5 4 4 4 5 4 5 4 3 2
4 4 3 6 6 5 6 8 7 6 5 4 4 2 2 3 2 2 6 7 7 7 7 6 6 6 6 6 7 6 6 5 5 4 4 4 5 4 4 5 4 4
3 2 3 3 5 6 6 8 10 9 7 5 3 3 2 2 2 3 4 5 7 8 8 8 7 7 6 6 5 4 5 5 5 5 5 4 4 4 4 5 4 3
3 1 2 2 3 4 6 6 8 8 8 6 8 4 2 3 7 7 5 6 6 8 8 8 8 7 7 7 6 4 4 4 4 4 4 4 4 4 3 3 3 3
3 1 1 1 1 2 3 4 3 3 5 7 6 7 9 9 7 7 6 6 8 7 8 7 5 5 6 6 8 7 5 5 5 4 4 4 4 4 4 4 3 2
3 2 2 2 2 2 2 3 3 4 6 6 5 7 9 10 11 11 8 6 7 8 5 1 5 6 6 6 5 6 6 6 6 5 5 4 3 4 3 4 3 3
3 2 1 3 4 6 6 6 5 5 5 5 7 8 8 8 5 2 1 3 4 5 10 2 2 2 1 4 9 6 6 7 6 6 5 4 3 3 3 3 3 2
1 2 2 1 0 1 1 1 4 7 7 6 8 8 8 7 6 5 5 4 4 6 5 4 4 1 4 2 11 12 6 6 5 5 4 4 4 3 3 3 3 3
1 1 1 2 1 0 0 2 3 2 3 7 8 8 8 7 7 8 8 8 9 9 11 9 6 5 8 10 14 20 9 7 7 5 4 3 4 3 3 3 3 3
1 0 1 0 1 1 2 1 1 1 2 3 2 3 5 5 6 6 6 6 8 10 9 8 6 7 11 9 12 13 10 7 5 5 5 4 5 5 4 4 4 3
1 1 2 0 0 0 1 2 2 2 3 3 3 3 2 2 3 3 4 4 4 6 7 7 7 10 12 13 12 10 12 9 5 5 6 4 4 4 4 4 4 4
1 0 1 1 1 1 1 2 3 3 3 3 2 2 3 3 3 4 4 4 4 4 4 5 6 12 16 15 14 14 12 8 5 5 5 4 4 4 3 2 2 1
1 2 0 1 1 2 2 3 3 3 3 3 3 3 3 4 4 4 4 4 4 4 4 3 6 13 14 14 15 14 12 8 4 5 4 3 3 3 3 1 0 1
2 1 2 1 2 2 2 2 3 3 3 3 3 3 3 4 4 4 5 4 4 4 2 4 6 11 12 13 14 13 13 6 6 6 5 3 3 2 1 1 1 1
1 2 1 2 2 2 3 3 3 3 3 2 3 3 4 4 4 4 4 4 3 4 3 6 5 5 9 13 13 14 10 5 7 6 4 2 2 2 2 2 3 3
2 2 2 2 3 3 3 3 2 3 3 3 4 4 4 4 3 4 3 4 2 1 8 7 6 5 8 10 11 11 9 6 5 5 3 3 2 2 2 3 4 7
2 2 2 2 2 3 3 3 3 3 4 4 4 5 4 4 4 4 4 4 7 8 10 9 7 6 8 11 12 11 8 4 5 4 4 2 3 4 4 4 3 5
3 3 3 4 4 4 3 3 3 3 4 5 4 4 4 3 4 1 7 5 5 7 6 8 9 6 7 12 12 12 10 6 3 2 2 2 2 1 2 1 2 4
Wind_Direction
156 144 150 158 146 153 154 165 160 150 178 148 144 143 141 131 148 148 127 120 110 94 74 64 55 73 92 40 33 78 76 64 73 63 62 71 60 61 60 45 36 6
164 150 156 154 164 142 154 177 152 146 185 151 144 137 133 131 150 162 137 128 122 128 125 126 128 103 177 87 54 100 109 100 98 115 131 123 121 97 86 71 45 333
165 158 158 163 177 156 151 174 146 141 169 152 130 132 131 131 152 170 141 149 152 137 143 154 150 189 108 108 154 116 113 138 111 87 71 58 62 93 81 82 61 356
166 167 159 164 169 164 142 149 159 136 145 147 130 133 128 133 158 162 153 168 164 147 162 161 168 191 171 134 188 117 130 134 127 116 113 122 91 77 69 70 31 23
166 165 160 155 155 149 140 142 152 153 152 156 154 142 137 140 160 173 166 179 181 165 170 178 178 183 179 152 207 121 150 126 105 171 149 140 122 121 129 106 86 57
161 163 165 133 103 72 85 110 118 155 162 139 160 148 141 148 164 182 182 180 203 176 178 183 184 184 183 167 208 142 177 152 156 183 159 140 139 176 166 138 143 160
152 150 164 137 132 107 101 82 67 15 340 236 163 164 145 152 173 200 194 191 200 197 185 191 186 187 186 173 197 163 185 179 156 199 168 162 145 125 104 179 178 126
112 117 88 68 61 82 86 69 1 322 283 354 328 205 187 177 175 209 217 200 208 207 200 187 192 191 187 188 192 181 186 193 161 191 199 164 156 174 153 158 104 288
86 91 102 103 104 118 100 96 80 337 323 301 287 294 246 182 189 194 213 221 216 223 216 201 195 196 185 194 199 188 191 180 172 188 198 162 158 186 178 159 159 174
134 149 149 150 170 160 140 146 156 185 249 279 283 272 277 295 314 214 199 214 224 220 222 213 202 201 188 199 202 201 192 181 184 193 195 172 169 192 194 150 175 174
147 172 174 174 163 157 148 157 167 174 214 238 260 245 237 298 318 274 255 235 219 223 222 221 209 201 194 196 208 211 196 182 190 199 196 183 185 189 194 153 169 162
67 46 136 165 147 140 147 147 149 164 166 196 208 193 29 261 231 246 251 253 247 230 226 226 221 209 200 188 196 206 194 192 192 209 197 192 191 193 161 134 157 162
117 85 30 317 54 102 150 180 188 195 215 219 210 164 188 225 235 244 253 259 263 263 239 237 258 243 218 201 186 197 188 194 190 203 196 199 193 187 159 165 169 178
100 157 185 189 175 203 171 171 193 205 207 204 191 194 206 217 225 226 235 249 253 259 293 180 242 258 282 277 214 202 186 191 188 196 198 195 196 175 181 162 160 165
167 144 159 193 190 189 188 180 201 212 198 202 201 209 219 228 241 254 180 253 297 284 258 242 160 185 101 312 299 246 183 187 186 193 193 188 184 178 179 146 145 161
148 156 202 130 166 204 233 178 190 187 199 195 196 207 218 225 226 221 219 210 218 254 276 278 252 156 100 209 245 247 198 182 175 185 189 189 170 177 172 156 176 160
188 186 75 245 166 62 133 220 232 235 186 193 198 204 212 215 217 219 219 209 187 216 236 232 228 221 216 223 243 233 193 173 159 164 185 186 161 184 172 173 187 193
62 44 231 59 360 320 309 331 360 293 278 293 276 223 209 206 202 217 220 197 192 193 199 202 204 194 203 219 233 205 158 146 152 162 172 171 163 186 170 177 192 198
16 326 324 325 360 300 16 327 293 292 263 251 274 296 300 270 263 241 236 230 217 208 197 178 193 173 192 205 196 165 149 148 172 156 149 172 164 179 187 173 184 182
228 334 301 333 8 332 315 315 309 301 326 317 317 296 290 288 262 256 256 238 228 235 212 185 174 176 188 189 171 164 154 136 155 139 151 162 166 182 179 169 137 137
235 211 69 22 1 300 278 272 280 280 286 295 281 287 270 249 245 243 245 250 246 230 226 193 159 175 178 170 165 151 141 115 153 128 136 151 154 130 118 114 112 147
260 182 196 195 242 275 297 292 300 315 304 303 284 257 266 281 282 253 236 235 230 223 227 106 158 166 157 155 146 139 126 107 97 102 100 99 85 104 104 131 234 201
274 307 293 244 251 259 260 262 259 268 272 267 281 276 263 254 255 267 263 255 232 216 133 119 126 162 156 146 143 138 118 102 103 100 99 102 137 143 176 196 222 222
233 231 239 238 251 267 269 272 279 264 271 263 262 276 265 255 260 257 257 249 258 110 119 124 128 122 138 127 119 102 98 107 104 114 127 149 190 187 209 218 226 222
304 284 277 284 278 267 271 277 271 267 257 258 259 261 268 269 258 267 268 33 53 85 104 106 110 117 132 119 87 70 71 84 119 134 150 164 187 201 199 211 230 210
238 234 229 233 243 241 236 240 253 271 272 268 280 271 270 270 262 265 69 77 68 80 86 110 119 121 121 101 84 69 55 54 47 101 146 139 104 53 16 352 357 50